Regional Weather Roundup
Issued by NWS

Home | Current Version | Previous Version | Text Only | Print | Product List | Glossary On
Versions: 1 2 3 4 5 6 7 8 9 10 11 12 13 14 15 16 17 18 19 20 21 22 23 24 25 26 27 28 29 30 31 32 33 34 35 36 37 38 39 40 41 42 43 44 45 46 47 48 49 50
000
ASUS43 KLMK 271602
RWRKY
KENTUCKY REGIONAL WEATHER ROUNDUP
NATIONAL WEATHER SERVICE LOUISVILLE KY
1100 AM EST SAT DEC 27 2014

NOTE "FAIR" INDICATES FEW OR NO CLOUDS BELOW 12,000 FEET
WITH NO SIGNIFICANT WEATHER AND/OR OBSTRUCTIONS TO VISIBILITY.

KYZ001>023-026-027-061>063-070>075-271700-
WESTERN AND SOUTH CENTRAL KENTUCKY

CITY           SKY/WX    TMP DP  RH WIND       PRES   REMARKS
PADUCAH        LGT RAIN  49  47  93 S6        30.18S FOG
HENDERSON      CLOUDY    48  45  87 S8        30.19S
OWENSBORO      CLOUDY    48  46  93 S9        30.21S
HOPKINSVILLE   CLOUDY    49  46  89 SE5       30.20F FOG
BOWLING GREEN  CLOUDY    49  44  83 SE6       30.24F
GLASGOW        NOT AVBL
$$

KYZ024-025-028>034-038-045-046-053-271700-
NORTH CENTRAL KENTUCKY

CITY           SKY/WX    TMP DP  RH WIND       PRES   REMARKS
LOUISVILLE/SDF CLOUDY    49  43  80 S12       30.22S
LOUISVILLE/LOU CLOUDY    48  43  82 S10       30.23R
FORT KNOX      CLOUDY    47  43  88 S13       30.21F
$$

KYZ035>037-039>044-047>052-055>060-089>105-271700-
NORTHEAST KENTUCKY

CITY           SKY/WX    TMP DP  RH WIND       PRES   REMARKS
LEXINGTON      CLOUDY    51  35  54 S10       30.23S
COVINGTON      CLOUDY    48  38  68 S8        30.19S
FRANKFORT      CLOUDY    52  37  56 SW13G20   30.22R
$$

KYZ054-064>069-076>088-106>120-271700-
SOUTHEAST KENTUCKY

CITY           SKY/WX    TMP DP  RH WIND       PRES   REMARKS
JACKSON        PTSUNNY   52  29  41 CALM      30.27R
LONDON         CLOUDY    52  30  43 S3        30.27S
SOMERSET       NOT AVBL
MIDDLESBORO    CLOUDY    50  35  56 SE5       30.31S
MONTICELLO     CLOUDY    53  38  56 S3        30.29S
$$



USA.gov is the U.S. government's official web portal to all federal, state and local government web resources and services.